This is the latest recevied weather packets stored in our database for station/object DM5KA-13. If no packets are shown the sender has not sent any weather packets the latest 10 day(s).
| Time | Temp. | Humidity | Pressure | Rain* | Wind** | Luminosity | Snow |
|---|---|---|---|---|---|---|---|
| 1777508107 | 2.22° C | 61% | 1033.2 hPa | 0 mm | 0 m/s | - | - |
| 1777484708 | 10° C | 28% | 1030.7 hPa | 0 mm | 0.89 m/s, 0° | - | - |
| 1777483508 | 11.11° C | 27% | 1030.6 hPa | 0 mm | 0.45 m/s, 0° | - | - |
| 1777483208 | 11.11° C | 28% | 1030.6 hPa | 0 mm | 0 m/s | - | - |
| 1777482307 | 11.11° C | 26% | 1030.5 hPa | 0 mm | 1.79 m/s, 0° | - | - |
| 1777481708 | 11.11° C | 27% | 1030.4 hPa | 0 mm | 1.79 m/s, 0° | - | - |
| 1777480519 | 11.11° C | 26% | 1030.2 hPa | 0 mm | 0.89 m/s, 0° | - | - |
| 1777479319 | 11.11° C | 25% | 1030 hPa | 0 mm | 0.89 m/s, 0° | - | - |
| 1777479019 | 12.22° C | 25% | 1029.9 hPa | 0 mm | 0.89 m/s, 0° | - | - |
| 1777473007 | 12.78° C | 24% | 1030 hPa | 0 mm | 0.89 m/s, 0° | - | - |
| 1777469118 | 12.22° C | 23% | 1030.2 hPa | 0 mm | 0.89 m/s, 0° | - | - |
| 1777468518 | 12.22° C | 24% | 1030.1 hPa | 0 mm | 1.79 m/s, 0° | - | - |
| 1777468218 | 12.22° C | 23% | 1030.1 hPa | 0 mm | 1.79 m/s, 0° | - | - |
| 1777466106 | 12.22° C | 23% | 1030.3 hPa | 0 mm | 0.45 m/s, 0° | - | - |
| 1777465806 | 11.11° C | 23% | 1030.4 hPa | 0 mm | 1.34 m/s, 0° | - | - |
| 1777465506 | 12.22° C | 23% | 1030.4 hPa | 0 mm | 1.34 m/s, 0° | - | - |
| 1777465206 | 12.22° C | 22% | 1030.6 hPa | 0 mm | 1.34 m/s, 0° | - | - |
| 1777462805 | 12.22° C | 24% | 1030.5 hPa | 0 mm | 1.34 m/s, 0° | - | - |
| 1777462505 | 12.22° C | 24% | 1030.5 hPa | 0 mm | 2.24 m/s, 0° | - | - |
| 1777462205 | 12.22° C | 25% | 1030.5 hPa | 0 mm | 0.89 m/s, 0° | - | - |
| 1777461905 | 12.22° C | 26% | 1030.5 hPa | 0 mm | 1.34 m/s, 0° | - | - |
| 1777461605 | 11.11° C | 26% | 1030.6 hPa | 0 mm | 0.89 m/s, 0° | - | - |
| 1777461317 | 12.22° C | 27% | 1030.5 hPa | 0 mm | 0.89 m/s, 0° | - | - |
| 1777461017 | 12.22° C | 27% | 1030.5 hPa | 0 mm | 1.79 m/s, 0° | - | - |
| 1777460717 | 12.22° C | 26% | 1030.5 hPa | 0 mm | 0.89 m/s, 0° | - | - |
* Rain latest hour (hover to see other rain measurements)
** Current wind speed in m/s (hover to see current wind gust speed)